Location: Abraham Lincoln Continuation High School
(33.9711°N, 117.3662°W)
Time: 14:33:27
(UTC+00:00)

Cosmos 1842 - Pass Details

Date: 21 September 2020
Orbit: 522 x 536 km, 82.5° (Epoch: 28 October)

Event Time Altitude Azimuth Distance (km) Brightness Sun altitude
Rises 02:39:33 0° 350° (N) 2,655 7.1 -11.5°
Reaches altitude 10° 02:41:42 10° 347° (NNW) 1,763 6.2 -11.9°
Maximum altitude 02:45:32 64° 266° (W) 581 3.7 -12.7°
Drops below altitude 10° 02:49:21 10° 184° (S) 1,756 5.8 -13.5°
Sets 02:51:29 0° 181° (S) 2,643 6.7 -13.9°
